Location: Unspecified
(43.4354°N, 0.0000°E)
Time: 06:37:59
(UTC+00:00)

Courier 1B - Visible Passes

Search period start: 13 August 2020 00:00
Search period end: 23 August 2020 00:00
Orbit: 962 x 1209 km, 28.3° (Epoch: 12 August)

Date Brightness Start Highest point End Pass type
(mag) Time Alt. Az. Time Alt. Az. Time Alt. Az.
13 Aug 9.1 20:00:59 10° SW 20:06:21 22° S 20:10:50 12° SE visible
13 Aug 9.6 21:56:06 10° SW 21:57:43 13° SW 21:57:43 13° SW visible
14 Aug 9.2 21:01:32 10° SW 21:05:47 17° SSW 21:07:08 16° S visible
15 Aug 9.3 20:07:17 10° WSW 20:12:16 20° SSW 20:16:33 12° SSE visible
16 Aug 9.6 21:09:07 10° SW 21:11:36 12° SSW 21:12:52 11° SSW visible
17 Aug 9.6 20:14:06 10° SW 20:18:06 15° SSW 20:21:59 10° SSE visible
18 Aug 9.5 19:19:40 10° WSW 19:24:33 19° SSW 19:29:17 10° SSE visible
19 Aug 9.9 20:22:57 10° SW 20:23:51 10° SSW 20:24:45 10° SSW visible
20 Aug 9.8 19:26:50 10° SW 19:30:20 14° SSW 19:33:46 10° S visible
